Wind_Speed
6 5 5 4 4 4 4 4 3 3 2 1 1 3 3 4 4 5 5 4 4 4 3 3 3 3 2 2 2 2 2 3 4 4 4 5 5 5 4 5 4 4 5 5 5 5 6 6 6
7 7 6 6 5 5 5 5 5 4 4 3 2 3 3 4 4 6 5 5 4 4 3 3 3 3 3 2 2 2 2 4 4 4 5 6 6 6 6 5 5 5 5 6 6 6 6 7 7
8 8 8 7 7 6 6 6 6 5 5 4 4 4 4 4 4 5 6 6 6 5 4 3 3 3 3 2 2 2 3 4 5 5 6 6 6 6 6 6 6 5 6 6 6 7 7 7 7
9 9 9 9 8 8 8 7 6 6 6 5 5 5 5 5 5 5 6 7 6 5 4 4 3 3 3 2 2 3 4 5 5 6 6 6 7 7 6 7 7 6 7 7 7 8 8 8 8
10 10 10 10 10 9 9 8 8 7 7 6 6 6 5 5 5 6 6 7 7 5 4 4 3 3 3 3 3 4 5 5 5 6 6 6 7 7 7 7 6 6 7 7 7 7 7 8 8
11 11 11 11 11 10 10 9 9 8 8 7 7 6 6 6 6 6 7 7 6 5 4 3 3 3 3 3 3 4 5 5 6 6 6 6 7 7 7 6 6 6 6 6 7 7 7 7 7
12 11 12 12 12 11 11 10 10 9 9 8 7 8 7 7 7 7 7 6 6 5 5 4 3 3 3 3 3 4 4 5 6 6 6 6 6 6 6 6 6 6 6 6 7 7 7 7 7
13 12 13 13 13 13 12 11 11 10 10 9 9 9 9 8 7 7 7 7 7 6 6 5 4 3 3 3 3 3 4 5 5 6 6 6 6 5 5 5 5 5 6 6 7 7 7 7 7
14 13 14 14 13 13 13 12 11 11 10 10 10 10 10 9 9 8 8 7 7 6 5 5 4 3 2 2 2 3 4 4 5 5 5 5 5 5 5 5 5 6 6 6 7 7 7 7 7
14 14 14 14 14 14 13 13 12 11 11 10 10 11 10 9 9 8 8 8 7 6 6 5 4 2 1 1 2 3 4 4 4 4 5 4 4 5 5 5 5 6 6 6 6 6 6 6 6
15 15 15 15 15 15 14 13 13 13 13 12 11 11 11 10 9 9 8 7 7 6 6 5 4 2 1 1 2 2 3 3 4 4 4 4 4 4 5 5 5 6 6 6 6 6 6 5 6
15 15 14 15 15 15 15 15 13 14 13 12 11 11 11 10 9 9 9 8 8 6 6 5 3 2 1 1 1 2 2 3 4 3 4 4 4 4 5 5 6 6 6 6 6 5 4 4 5
15 15 15 15 15 16 16 16 15 14 14 13 12 11 11 10 10 10 9 9 8 6 6 5 4 3 2 0 1 1 2 3 3 3 3 3 4 5 5 6 6 6 6 6 5 4 3 4 4
15 16 16 16 16 16 17 17 16 16 16 14 13 12 12 11 12 10 9 9 8 7 6 5 4 3 2 1 0 1 2 3 3 3 3 4 5 5 5 6 6 5 5 4 3 2 2 2 2
15 16 16 16 16 16 16 17 17 17 17 16 15 14 13 13 13 12 11 9 8 8 7 5 5 4 2 1 0 1 2 2 3 4 4 4 5 5 5 6 6 5 5 4 3 2 1 1 1
15 16 16 16 16 16 17 17 18 17 18 17 16 15 15 14 14 13 11 9 9 8 7 6 5 4 2 1 1 1 2 2 4 5 5 4 5 5 6 6 6 6 5 4 3 3 2 1 2
15 16 16 16 17 16 17 17 17 18 19 18 17 16 16 15 15 13 12 10 9 9 8 7 6 5 3 2 1 1 2 3 4 5 5 5 6 6 6 7 7 6 6 5 4 4 4 3 3
15 16 17 17 17 16 17 18 17 17 18 18 17 17 16 15 15 14 12 11 10 10 9 7 6 5 4 3 2 1 2 2 3 5 5 6 6 6 7 7 7 7 6 6 5 5 5 4 4
14 15 16 17 17 17 16 17 18 19 18 18 18 18 17 16 15 15 14 12 11 10 10 8 7 5 5 4 3 2 2 2 3 4 5 6 6 7 7 7 7 7 7 6 6 6 6 5 5
13 14 16 16 16 17 16 17 18 19 20 19 18 18 17 16 15 15 14 13 12 11 10 10 8 7 6 5 4 3 2 3 3 4 5 6 6 7 7 8 8 7 7 7 7 7 6 6 6
13 14 15 15 16 16 16 17 17 18 20 20 19 18 18 17 15 15 14 13 13 12 11 10 9 8 7 6 5 4 3 3 3 4 4 5 6 7 8 8 8 8 7 7 7 7 7 7 6
12 13 14 14 15 16 16 17 17 18 20 21 20 18 18 18 16 15 15 14 14 13 12 10 10 9 8 7 6 5 4 3 3 3 4 5 6 7 8 8 8 8 7 7 7 7 7 7 6
9 10 12 13 14 15 16 17 16 19 20 20 20 19 20 19 18 17 16 16 15 14 13 12 11 10 9 8 7 6 5 4 3 3 3 4 5 6 7 8 8 8 8 7 7 7 7 7 6
9 9 9 11 13 14 15 16 16 17 19 20 20 20 20 20 20 18 17 17 16 15 15 13 12 12 10 10 8 7 6 5 4 3 3 4 4 5 6 7 8 8 8 8 8 8 7 6 6
9 9 9 10 10 11 13 15 15 15 18 20 21 21 21 21 21 20 19 18 17 16 15 14 14 13 11 11 9 9 7 6 4 4 3 3 3 4 6 6 7 8 8 9 8 8 8 7 7
8 9 10 11 10 10 11 13 13 16 17 19 20 21 20 20 21 20 20 19 18 17 16 15 15 14 13 12 11 10 9 7 5 4 3 3 3 4 5 5 6 7 7 8 8 9 8 8 7
7 8 9 10 11 10 11 11 12 15 17 19 21 20 19 19 20 21 21 20 19 18 17 16 16 15 14 14 13 11 10 8 6 5 3 3 2 3 3 4 5 5 7 8 8 8 8 8 7
8 8 8 9 10 10 10 11 12 14 16 18 19 20 19 19 19 20 21 21 20 19 18 17 17 16 15 15 14 12 11 9 7 6 4 4 3 2 2 2 3 4 5 6 6 7 7 7 7
9 8 8 9 9 9 9 11 12 13 15 17 18 19 20 20 20 19 19 20 21 20 18 17 17 16 15 15 14 13 12 10 9 7 6 5 4 3 2 1 1 2 3 4 4 5 5 6 6
9 9 8 8 9 9 10 11 11 12 14 16 18 19 20 20 19 19 19 19 20 20 19 18 17 17 16 16 15 14 13 11 10 9 8 7 5 4 3 2 1 0 1 2 3 3 4 4 4
Wind_Direction
258 256 257 259 257 256 261 264 255 250 248 258 238 216 205 209 208 207 208 202 202 207 213 213 202 214 227 255 288 297 315 328 327 323 322 322 318 315 314 309 308 302 290 284 285 281 276 273 263
259 256 255 257 258 259 261 258 251 253 250 256 256 229 216 223 222 215 207 206 208 210 213 210 214 230 238 258 283 296 310 317 314 319 321 316 315 311 310 308 301 292 288 282 279 281 279 274 265
263 258 254 254 255 256 258 255 250 246 246 249 252 241 232 235 221 213 212 210 208 209 213 220 234 237 246 268 287 291 299 309 311 317 317 313 311 307 304 303 297 287 285 285 286 281 276 272 263
263 260 255 252 251 253 256 254 250 246 246 248 249 244 245 240 223 213 211 214 206 207 216 228 240 249 243 259 279 283 298 305 310 312 309 308 308 304 301 302 298 287 288 289 289 284 276 267 260
259 258 254 252 251 251 254 253 249 245 246 250 245 241 238 227 219 218 216 214 208 209 216 223 230 248 259 269 282 289 299 303 309 311 307 305 306 302 300 301 298 293 293 291 289 283 277 271 265
258 254 251 252 251 249 249 251 248 247 245 244 238 233 230 223 222 220 218 214 206 206 206 214 228 245 258 265 285 300 298 301 309 310 310 308 309 306 303 304 300 300 299 295 291 284 280 274 266
257 251 247 249 249 249 248 248 247 246 243 242 238 233 230 225 224 219 216 209 206 208 204 212 223 244 267 278 296 309 306 307 308 310 312 313 313 310 306 304 304 301 297 294 291 286 283 275 266
255 250 246 247 247 248 248 248 246 243 242 242 241 234 229 229 224 218 212 204 202 207 208 212 221 247 273 285 298 307 311 312 315 319 318 318 316 310 307 307 307 301 297 295 290 286 281 274 266
253 248 246 246 247 248 247 247 247 243 239 240 238 230 227 226 222 215 209 202 199 205 208 207 219 239 259 289 308 308 316 320 323 323 322 319 317 316 316 314 309 305 303 299 292 285 278 272 265
253 249 247 246 245 246 244 244 245 241 236 235 235 228 223 222 220 210 206 204 199 202 205 206 208 210 244 290 306 315 322 325 332 333 334 334 329 325 324 320 316 313 307 300 295 287 276 270 261
252 250 247 246 243 243 242 241 240 239 232 233 233 228 225 221 217 209 205 204 200 193 194 202 201 204 233 294 311 323 335 340 342 339 342 341 338 335 331 325 322 319 314 307 299 289 278 272 263
251 249 247 245 243 242 240 239 238 237 231 230 234 229 226 219 212 205 200 198 194 192 191 195 195 203 215 265 317 338 345 350 350 351 353 350 350 346 339 334 328 323 320 313 303 290 276 266 260
249 248 244 243 244 240 238 237 238 235 228 229 231 224 219 215 210 203 200 198 196 197 201 201 200 196 199 241 343 351 5 4 8 6 1 0 355 350 345 342 338 332 326 321 312 296 279 267 258
250 246 244 243 243 241 238 238 237 233 229 227 228 222 217 216 210 205 202 198 198 201 200 198 192 193 190 169 18 7 12 14 17 11 6 4 2 1 356 350 348 345 343 341 331 316 290 268 249
249 246 245 243 243 241 239 237 236 234 230 225 224 223 219 216 211 207 201 197 200 202 202 201 197 189 182 160 82 42 25 27 28 19 13 12 13 15 12 5 2 2 6 8 4 353 326 237 193
249 245 244 244 242 239 237 237 236 233 228 224 223 221 220 218 213 206 199 196 201 202 202 202 201 194 196 181 122 73 50 48 38 25 21 21 23 25 20 16 14 15 19 24 30 46 68 105 125
250 245 243 243 240 236 234 234 233 231 227 222 220 218 216 216 210 205 199 199 203 202 201 201 199 197 195 180 156 110 85 61 44 34 34 33 34 33 27 23 20 21 27 37 49 67 82 95 106
250 244 240 241 238 235 233 233 231 229 224 220 219 217 213 215 207 200 201 203 203 201 201 198 197 202 193 177 169 140 105 76 55 46 44 43 43 41 35 29 26 30 36 48 62 72 79 91 101
251 245 241 241 237 235 235 234 231 229 226 221 219 216 211 212 209 204 204 204 205 206 203 198 201 201 196 183 173 154 125 98 72 55 52 52 52 46 39 33 34 41 48 55 63 71 79 87 97
250 246 238 238 235 234 236 234 233 227 223 221 219 213 207 209 209 204 201 202 207 206 201 201 206 207 200 188 177 167 148 119 90 71 64 59 54 48 42 39 41 50 55 62 70 75 81 85 94
245 243 238 237 236 235 233 232 233 230 224 221 216 209 206 207 206 203 203 203 202 201 202 204 204 204 202 190 182 177 162 139 116 91 70 61 56 51 49 49 51 56 61 69 74 77 82 88 92
245 244 242 239 238 234 232 232 229 227 223 219 216 209 207 207 204 204 205 203 203 204 205 206 206 206 202 191 187 182 173 155 134 106 77 67 61 55 55 57 58 61 65 69 73 77 81 88 92
245 242 241 238 235 233 233 234 230 227 223 218 214 211 208 207 206 207 207 207 207 205 205 206 205 205 201 193 191 187 182 169 150 124 92 77 66 61 60 61 62 62 63 66 71 76 81 85 90
248 243 237 236 236 233 234 236 232 226 220 215 212 211 209 208 208 209 209 208 208 207 208 208 206 205 202 197 196 189 185 177 161 139 113 91 76 70 65 63 63 60 60 65 68 72 76 81 86
244 240 236 236 239 240 236 235 231 224 218 214 213 211 209 208 209 210 209 208 208 207 209 208 208 205 203 200 196 191 188 182 171 155 133 106 87 77 69 65 62 59 59 62 65 69 72 75 79
241 238 237 236 235 239 235 235 231 224 219 214 214 214 212 208 208 208 207 207 206 206 207 208 209 206 205 203 198 194 191 186 178 168 152 129 107 91 76 66 60 58 59 61 61 66 71 73 74
241 239 240 237 234 235 238 236 229 221 220 216 215 214 214 211 210 210 208 205 206 206 206 208 210 207 207 206 201 198 195 193 190 185 175 160 140 114 88 72 61 61 64 64 62 62 65 66 69
239 235 234 233 233 234 234 230 225 219 217 216 216 216 216 214 213 213 210 206 207 206 206 207 208 208 208 205 204 204 202 200 201 201 197 187 172 147 113 86 68 68 64 61 58 55 53 56 62
236 232 229 230 230 228 228 228 224 218 216 216 215 213 210 211 213 212 211 209 207 208 208 210 210 210 208 206 207 207 206 206 207 209 209 202 191 182 165 134 89 73 59 52 50 49 48 52 58
235 232 228 227 227 227 225 227 223 218 215 215 212 209 207 209 212 211 210 210 208 209 212 212 212 213 212 210 210 210 210 209 211 213 215 211 206 200 197 201 196 67 30 30 31 30 31 38 45
Height
5895 5896 5896 5898 5899 5899 5899 5899 5899 5899 5899 5899 5898 5898 5898 5899 5900 5902 5899 5898 5899 5899 5899 5899 5898 5898 5898 5898 5898 5898 5897 5897 5896 5896 5895 5894 5893 5893 5892 5892 5891 5891 5891 5890 5890 5890 5890 5889 5889
5894 5895 5896 5897 5897 5897 5898 5897 5897 5897 5898 5897 5897 5897 5897 5897 5897 5897 5897 5897 5898 5898 5898 5898 5898 5898 5898 5898 5897 5897 5897 5896 5896 5895 5894 5893 5892 5892 5891 5891 5890 5890 5889 5889 5888 5888 5888 5888 5888
5892 5893 5895 5895 5895 5896 5896 5896 5896 5896 5896 5896 5896 5896 5896 5896 5896 5896 5896 5896 5897 5897 5897 5897 5897 5897 5897 5897 5897 5897 5896 5896 5895 5894 5893 5892 5891 5890 5890 5889 5889 5889 5888 5887 5887 5886 5886 5886 5886
5891 5892 5893 5894 5893 5894 5894 5894 5894 5895 5895 5895 5895 5895 5895 5895 5895 5895 5895 5895 5896 5896 5896 5896 5896 5896 5896 5896 5896 5896 5895 5895 5894 5893 5892 5891 5890 5889 5888 5888 5887 5887 5886 5886 5885 5885 5884 5884 5884
5889 5890 5891 5891 5891 5892 5892 5892 5893 5893 5893 5893 5893 5893 5893 5894 5894 5894 5894 5894 5895 5895 5895 5895 5895 5896 5895 5895 5895 5895 5894 5894 5893 5892 5891 5890 5889 5888 5887 5886 5886 5885 5885 5884 5884 5883 5882 5882 5882
5887 5888 5889 5889 5889 5890 5890 5890 5891 5891 5891 5891 5892 5892 5892 5892 5892 5892 5893 5893 5893 5894 5894 5894 5894 5895 5894 5894 5894 5893 5893 5892 5892 5891 5890 5888 5887 5886 5885 5885 5884 5884 5883 5883 5882 5882 5881 5880 5880
5885 5885 5886 5886 5887 5888 5888 5888 5889 5889 5889 5890 5890 5890 5890 5891 5891 5891 5892 5892 5892 5893 5893 5894 5894 5894 5893 5893 5893 5892 5892 5891 5891 5889 5888 5887 5886 5885 5884 5883 5883 5882 5882 5881 5880 5880 5879 5878 5878
5882 5883 5883 5884 5885 5885 5886 5886 5886 5887 5887 5888 5888 5889 5889 5889 5890 5890 5890 5891 5892 5892 5892 5892 5893 5893 5893 5893 5892 5891 5891 5890 5889 5888 5887 5886 5885 5884 5883 5882 5881 5881 5880 5879 5879 5878 5877 5877 5876
5878 5881 5880 5881 5882 5883 5883 5884 5884 5884 5885 5886 5886 5887 5887 5888 5888 5889 5889 5890 5890 5891 5891 5892 5892 5892 5892 5892 5891 5891 5890 5889 5888 5887 5886 5885 5884 5883 5882 5881 5880 5879 5879 5878 5877 5876 5875 5875 5874
5875 5876 5877 5878 5879 5880 5880 5881 5882 5882 5883 5884 5884 5884 5885 5886 5886 5887 5888 5888 5889 5890 5890 5891 5891 5892 5891 5891 5891 5890 5889 5888 5887 5886 5885 5884 5883 5882 5881 5880 5879 5878 5877 5876 5875 5874 5874 5873 5873
5871 5872 5873 5874 5875 5876 5877 5878 5879 5880 5881 5881 5882 5883 5883 5884 5885 5886 5887 5887 5888 5889 5890 5890 5891 5891 5891 5891 5890 5889 5888 5888 5887 5886 5885 5884 5882 5881 5880 5879 5878 5877 5876 5874 5873 5873 5872 5871 5871
5868 5868 5870 5871 5872 5873 5874 5875 5876 5877 5878 5879 5880 5880 5881 5882 5883 5884 5885 5886 5887 5888 5889 5890 5890 5890 5890 5890 5889 5889 5888 5887 5886 5885 5884 5883 5882 5881 5879 5878 5877 5875 5874 5873 5872 5871 5870 5870 5869
5864 5865 5866 5867 5868 5869 5871 5872 5873 5874 5875 5876 5877 5878 5880 5881 5882 5883 5884 5886 5887 5888 5889 5889 5890 5890 5889 5889 5889 5888 5888 5887 5886 5885 5884 5882 5881 5880 5878 5877 5876 5874 5873 5871 5870 5869 5869 5868 5868
5861 5861 5862 5864 5865 5866 5867 5869 5870 5871 5872 5874 5875 5876 5877 5879 5880 5882 5883 5885 5886 5887 5888 5888 5889 5889 5889 5889 5889 5888 5887 5886 5886 5884 5883 5882 5881 5879 5878 5876 5875 5873 5872 5870 5869 5869 5868 5867 5867
5857 5858 5859 5860 5862 5863 5865 5866 5867 5868 5869 5871 5873 5874 5876 5877 5879 5880 5882 5884 5885 5886 5887 5888 5888 5888 5889 5889 5888 5888 5887 5886 5886 5884 5883 5882 5880 5879 5877 5876 5874 5873 5871 5870 5869 5868 5867 5867 5866
5854 5855 5856 5857 5858 5860 5863 5863 5864 5865 5867 5868 5870 5872 5873 5875 5877 5878 5880 5882 5884 5885 5886 5887 5888 5888 5888 5888 5888 5888 5887 5886 5886 5884 5883 5882 5880 5879 5877 5876 5874 5873 5871 5870 5869 5868 5867 5867 5866
5850 5851 5852 5854 5855 5856 5858 5859 5860 5862 5863 5865 5867 5869 5871 5873 5875 5876 5879 5881 5883 5884 5885 5886 5887 5887 5888 5888 5888 5888 5887 5887 5886 5884 5883 5882 5880 5879 5877 5876 5874 5873 5871 5870 5869 5868 5867 5867 5866
5847 5847 5849 5850 5851 5853 5854 5856 5857 5858 5860 5862 5864 5866 5869 5871 5873 5875 5877 5879 5881 5883 5884 5885 5886 5887 5887 5887 5888 5888 5887 5887 5886 5885 5884 5882 5881 5879 5878 5876 5875 5873 5872 5871 5869 5868 5868 5867 5867
5843 5844 5845 5846 5848 5849 5851 5852 5853 5855 5857 5859 5861 5864 5866 5869 5871 5873 5876 5878 5880 5882 5883 5884 5885 5886 5887 5887 5888 5888 5888 5887 5886 5885 5884 5883 5882 5880 5879 5877 5875 5874 5873 5871 5870 5869 5869 5868 5868
5839 5840 5841 5843 5844 5846 5847 5849 5850 5851 5854 5856 5859 5861 5864 5866 5869 5871 5874 5877 5879 5881 5882 5883 5885 5886 5886 5887 5887 5888 5888 5887 5887 5886 5885 5884 5883 5881 5880 5878 5877 5875 5874 5872 5871 5871 5870 5869 5869
5836 5837 5838 5839 5841 5842 5844 5846 5847 5848 5850 5853 5856 5858 5861 5864 5867 5870 5872 5875 5877 5879 5881 5882 5884 5885 5886 5887 5887 5888 5888 5888 5887 5887 5886 5885 5884 5882 5881 5879 5878 5876 5875 5874 5873 5872 5871 5871 5870
5833 5834 5835 5836 5838 5839 5842 5843 5844 5845 5847 5850 5852 5855 5859 5862 5865 5868 5870 5873 5876 5878 5880 5882 5883 5884 5885 5886 5887 5888 5888 5888 5888 5887 5887 5886 5885 5884 5882 5881 5879 5878 5877 5876 5875 5874 5873 5873 5872
5831 5832 5833 5834 5835 5837 5838 5840 5842 5842 5844 5847 5850 5853 5856 5859 5863 5866 5869 5871 5874 5876 5879 5880 5882 5883 5885 5886 5887 5887 5888 5888 5888 5888 5887 5886 5886 5885 5884 5882 5881 5880 5878 5877 5876 5876 5875 5874 5874
5829 5830 5830 5831 5832 5834 5835 5837 5839 5839 5842 5844 5847 5850 5853 5857 5860 5863 5866 5869 5872 5875 5877 5879 5881 5882 5884 5885 5886 5887 5888 5888 5888 5888 5888 5887 5887 5886 5885 5884 5883 5882 5880 5879 5878 5877 5876 5876 5875
5827 5829 5829 5830 5830 5832 5832 5833 5836 5837 5839 5841 5845 5848 5851 5854 5857 5861 5864 5867 5870 5873 5875 5878 5880 5881 5883 5884 5885 5886 5887 5888 5888 5888 5888 5888 5887 5887 5886 5886 5884 5883 5882 5881 5880 5879 5878 5878 5877
5825 5826 5828 5829 5829 5829 5830 5831 5834 5834 5836 5839 5842 5845 5848 5851 5855 5858 5861 5865 5867 5870 5873 5876 5878 5880 5882 5883 5884 5886 5887 5888 5888 5888 5888 5888 5888 5888 5887 5887 5886 5885 5884 5883 5882 5881 5880 5879 5879
5823 5823 5825 5826 5826 5827 5828 5829 5830 5832 5834 5836 5839 5843 5846 5850 5852 5855 5859 5862 5865 5868 5871 5874 5876 5878 5880 5882 5883 5885 5886 5887 5888 5888 5888 5888 5888 5888 5888 5887 5887 5886 5886 5885 5884 5883 5882 5881 5880
5821 5821 5822 5823 5824 5825 5826 5827 5828 5829 5831 5834 5837 5840 5844 5847 5850 5853 5856 5859 5862 5866 5869 5872 5874 5877 5879 5880 5882 5884 5885 5886 5887 5888 5888 5888 5888 5888 5888 5888 5888 5887 5887 5886 5885 5884 5883 5882 5881
5819 5820 5820 5821 5822 5823 5824 5827 5826 5827 5829 5832 5834 5838 5841 5844 5848 5851 5854 5857 5860 5863 5867 5869 5872 5875 5877 5879 5881 5882 5884 5885 5886 5887 5887 5888 5888 5888 5888 5888 5888 5888 5887 5887 5886 5885 5884 5883 5882
5816 5817 5818 5819 5820 5820 5822 5826 5824 5825 5827 5829 5832 5835 5839 5842 5845 5848 5851 5854 5858 5861 5864 5867 5870 5872 5875 5877 5879 5881 5882 5884 5885 5886 5887 5887 5887 5888 5888 5888 5888 5888 5888 5887 5886 5886 5885 5884 5883